Location: Colonia Mina de C?rbuni
(46.1667°N, 22.7167°E)
Time: 20:52:49
(UTC+00:00)

Tiros 1 - Pass Details

Date: 17 April 2024
Orbit: 624 x 657 km, 48.4° (Epoch: 20 May)

Event Time Altitude Azimuth Distance (km) Brightness Sun altitude
Rises 04:02:06 0° 287° (WNW) 2,908 10.0 3.1°
Reaches altitude 10° 04:04:25 10° 287° (WNW) 1,998 9.2 3.5°
Maximum altitude 04:09:01 90° 300° (WNW) 629 7.2 4.3°
Drops below altitude 10° 04:13:36 10° 109° (ESE) 1,993 10.9 5.1°
Sets 04:15:55 0° 109° (ESE) 2,900 11.7 5.5°
